Location: Newport
(44.6370°N, 124.0520°W)
Time: 19:09:44
(UTC-07:00)

ISS - Pass Details

Date: 11 October 2017
Orbit: 400 x 408 km, 51.6° (Epoch: 24 October)

Event Time Altitude Azimuth Distance (km) Brightness Sun altitude
Rises 20:30:39 0° 298° (WNW) 2,328 1.3 -20.8°
Reaches altitude 10° 20:32:46 10° 294° (WNW) 1,467 0.1 -21.2°
Enters shadow 20:35:43 52° 237° (WSW) 512 -3.2 -21.7°
